Change the Weather History Date:

Tuesday, February 25, 2014

  Actual Average Record
Temperature  
Mean Temperature 7 °F 30 °F  
Max Temperature 14 °F 40 °F 74 °F (1995)
Min Temperature 0 °F 20 °F -7 °F (1924)
Degree Days  
Heating Degree Days 58 35  
Month to date heating degree days 1101 966  
Since 1 July heating degree days 5197 4988  
Cooling Degree Days 0 0  
Month to date cooling degree days 0 0  
Year to date cooling degree days 0 0  
Moisture  
Dew Point -1 °F    
Average Humidity 68    
Maximum Humidity 83    
Minimum Humidity 53    
Precipitation  
Precipitation T in 0.03 in 0.49 in (1945)
Month to date precipitation 0.39 0.66  
Year to date precipitation 0.53 1.25  
Snow  
Snow T in 0.20 in - ()
Month to date snowfall 6.2 5.0  
Since 1 July snowfall 10.7 22.3  
Snow Depth 3.00 in    
Sea Level Pressure  
Sea Level Pressure 30.49 in    
Wind  
Wind Speed 14 mph (NNW)    
Max Wind Speed 26 mph    
Max Gust Speed 31 mph    
Visibility 10 miles    
Events Snow    
T = Trace of Precipitation, MM = Missing Value Source: NWS Daily Summary

Daily Weather History Graph

Daily Weather History Graph

Search for Another Location

Airport or City:

Trip Planner

Search our weather history database for the weather conditions in past years. The results will help you decide how hot, cold, wet, or windy it might be!

Date:

Astronomy

Feb. 25, 2014 Rise Set
Actual Time 7:10 AM CST 6:15 PM CST
Civil Twilight 6:42 AM CST 6:43 PM CST
Nautical Twilight 6:10 AM CST 7:15 PM CST
Astronomical Twilight 5:38 AM CST 7:48 PM CST
Moon 4:09 AM CST (2/25) 2:19 PM CST (2/25)
Length of Visible Light 12h 00m
Length of Day
11h 04m
Waning Crescent, 18% of the Moon is Illuminated
Feb 25
Waning Crescent
Mar 1
New
Mar 8
First Quarter
Mar 16
Full
Mar 23
Last Quarter

Hourly Weather History & Observations

Time (CST) Temp. Windchill Dew Point Humidity Pressure Visibility Wind Dir Wind Speed Gust Speed Precip Events Conditions
12:31 AM 10.9 °F -7.0 °F 6.1 °F 81% 30.36 in 5.0 mi NNW 18.4 mph - 0.00 in Snow Light Snow
12:56 AM 10.0 °F -10.0 °F 3.9 °F 76% 30.45 in 5.0 mi NNW 23.0 mph - 0.00 in   Overcast
1:28 AM 7.0 °F -12.1 °F 1.9 °F 80% 30.39 in 4.0 mi NNW 18.4 mph - 0.00 in Snow Light Snow
1:56 AM 6.1 °F -12.2 °F -0.9 °F 73% 30.49 in 10.0 mi North 16.1 mph - 0.00 in   Overcast
2:56 AM 5.0 °F -14.7 °F -0.9 °F 76% 30.49 in 10.0 mi NNW 18.4 mph - N/A   Overcast
3:56 AM 3.9 °F -14.3 °F -2.0 °F 76% 30.49 in 10.0 mi NW 15.0 mph - N/A   Mostly Cloudy
4:23 AM 3.9 °F -13.0 °F -0.9 °F 80% 30.39 in 10.0 mi NW 12.7 mph - N/A   Scattered Clouds
4:56 AM 3.0 °F -11.5 °F -2.0 °F 80% 30.49 in 10.0 mi NW 9.2 mph - N/A   Clear
5:56 AM 1.0 °F -15.8 °F -5.1 °F 75% 30.49 in 10.0 mi NW 11.5 mph - N/A   Clear
6:56 AM 1.9 °F -13.8 °F -4.0 °F 76% 30.47 in 10.0 mi NNW 10.4 mph - N/A   Partly Cloudy
7:56 AM 3.0 °F -8.0 °F -4.0 °F 73% 30.47 in 10.0 mi North 5.8 mph - N/A   Overcast
8:56 AM 5.0 °F -10.8 °F -2.0 °F 73% 30.49 in 10.0 mi NW 11.5 mph - N/A   Overcast
9:56 AM 8.1 °F -5.3 °F -0.0 °F 70% 30.48 in 10.0 mi NNW 9.2 mph - N/A   Overcast
10:56 AM 10.0 °F -5.9 °F -0.0 °F 64% 30.50 in 10.0 mi NW 13.8 mph - N/A   Overcast
11:56 AM 10.9 °F -5.9 °F -0.0 °F 61% 30.50 in 10.0 mi NNW 16.1 mph - N/A   Overcast
12:56 PM 12.0 °F -4.0 °F -0.0 °F 59% 30.49 in 10.0 mi NNW 15.0 mph - N/A   Overcast
1:56 PM 12.9 °F -3.9 °F -0.0 °F 56% 30.48 in 10.0 mi NW 17.3 mph - N/A   Overcast
2:56 PM 12.9 °F -2.8 °F -0.9 °F 54% 30.46 in 10.0 mi NW 15.0 mph - N/A   Scattered Clouds
3:56 PM 12.9 °F -3.9 °F -2.9 °F 49% 30.48 in 10.0 mi NNW 17.3 mph - N/A   Scattered Clouds
4:56 PM 12.9 °F -2.8 °F -0.9 °F 54% 30.47 in 10.0 mi NW 15.0 mph - N/A   Clear
5:56 PM 12.9 °F -4.9 °F 1.0 °F 59% 30.49 in 10.0 mi NNW 19.6 mph 27.6 mph N/A   Clear
6:56 PM 10.9 °F -6.5 °F 1.0 °F 64% 30.52 in 10.0 mi NNW 17.3 mph - N/A   Clear
7:56 PM 10.0 °F -5.2 °F 1.0 °F 67% 30.55 in 10.0 mi NNW 12.7 mph - N/A   Clear
8:56 PM 8.1 °F -7.7 °F -0.0 °F 70% 30.56 in 10.0 mi NNW 12.7 mph - N/A   Clear
9:56 PM 3.9 °F -9.4 °F -2.9 °F 73% 30.57 in 10.0 mi NNW 8.1 mph - N/A   Clear
10:56 PM 1.9 °F -12.9 °F -6.0 °F 69% 30.57 in 10.0 mi NW 9.2 mph - N/A   Clear
11:56 PM -0.0 °F -13.0 °F -7.1 °F 72% 30.55 in 10.0 mi WNW 6.9 mph - N/A   Clear